CZ-6A DEB, 54914

Orbit data source: Space-Track

CZ-6A DEB, 54914 is space debris in SSO originally from a launch on Fri, 11 Nov 2022 UTC launched from the Taiyaun Space Center, China (TSC). Debris objects in space refer to the collection of defunct objects orbiting the Earth. Examples of debris include non-operational satellites, rocket bodies, and fragments generated from explosions, collisions, or faulty payload assembly.

Loading next visibility...
Identifier
54914, 2022-151RB
Orbit
SSO
Country
Flag of CNCN / PRC
Related business
Manufacturer
SAST
Mission
Spacecraft
Bus & Motor
Unknown
Mass
Unknown
Launch date (UTC)
2022-11-11 (4 years ago)
Launch vehicle
Unknown
Launch site
Taiyaun Space Center, China (TSC)
Object type
Payload
Rocket body
Debris
Shape & HBR
Unknown shape, 0.1 m
Radar Cross Section
Medium (>0.1 m² and <1 m²)

Expand to show TLE details & history
Last TLE update: 1 day ago

TLE from 1 day ago
0 CZ-6A DEB
1 54914U 22151RB  26235.26619353  .00000125  00000-0  91060-4 0  9995
2 54914  98.8118 232.9511 0041313 154.0447 206.2809 14.12106782194182
Epoch: 2026-08-23T06:23Z
TLE epoch observation values (Epoch: 2026-08-23T06:23:19.120Z)
Latitude
-0.00002°
Longitude
165.55672°
Altitude
881.884 km
Speed
7.398 km/s
True Right ascension
15h 31m 48s
True Declination
0° 00' 00"
Sunlit
Object was in daylight at epoch
Visualization orbit readout
Latitude
Unknown
Longitude
Unknown
Altitude
Unknown
Speed
Unknown
Apparent Right ascension
Unknown
Apparent Declination
Unknown
Sunlit
N/A
Visualization observer readout
Local Sidereal Time
23:54:57
Azimuth
Unknown
Elevation
Unknown
Doppler factor
Unknown
Orbital elements
Apogee altitude
879.204 km
Perigee altitude
819.486 km
Semi-major axis
7,227.482 km
Eccentricity
0.00413
Inclination
98.8118°
RAAN
232.9511°
Arg. of periapsis
154.0447°
True anomaly
206.07225°
Mean anomaly
206.2809°
Eccentric anomaly
206.17648°
Mean motion
3.53234 °/min
Orbital period
101.92 mins
BSTAR
0.00009106
Loading maneuver chart data...
Computing Atmospheric mass density...
Loading historical data...
Loading historical data...
Loading historical data...
Loading historical data...
Loading historical data...
Loading historical data...
Loading historical data...

Documentation

Showing up to 5 results
|